Time,TemperatureF,DewpointF,PressureIn,WindDirection,WindDirectionDegrees,WindSpeedMPH,WindSpeedGustMPH,Humidity,HourlyPrecipIn,Conditions,Clouds,dailyrainin,SolarRadiationWatts/m^2,SoftwareType,DateUTC
2013-02-04 00:03:00,31.0,31.0,30.19,SSE,157,0.0,-999.0,98,-99.99,,,0.00,0.000000,,2013-02-04 05:03:00,
2013-02-04 00:12:00,31.0,31.0,30.19,SSW,209,1.0,-999.0,98,-99.99,,,0.00,0.000000,,2013-02-04 05:12:00,
2013-02-04 00:22:00,31.0,30.0,30.19,WSW,247,2.0,-999.0,98,-99.99,,,0.00,0.000000,,2013-02-04 05:22:00,
2013-02-04 00:33:00,31.0,30.0,30.19,WSW,247,2.0,-999.0,98,-99.99,,,0.00,0.000000,,2013-02-04 05:33:00,
2013-02-04 00:42:00,31.0,30.0,30.19,WSW,255,1.0,-999.0,99,-99.99,,,0.00,0.000000,,2013-02-04 05:42:00,
2013-02-04 00:52:00,31.0,31.0,30.18,ENE,77,0.0,-999.0,99,-99.99,,,0.00,0.000000,,2013-02-04 05:52:00,
2013-02-04 01:02:00,31.0,31.0,30.18,ENE,77,0.0,-999.0,99,-99.99,,,0.00,0.000000,,2013-02-04 06:02:00,
2013-02-04 01:11:00,30.0,30.0,30.17,SSE,165,0.0,-999.0,99,-99.99,,,0.00,0.000000,,2013-02-04 06:11:00,
2013-02-04 01:21:00,30.0,30.0,30.17,SSW,212,1.0,-999.0,99,-99.99,,,0.00,0.000000,,2013-02-04 06:21:00,
2013-02-04 01:32:00,30.0,30.0,30.17,SE,145,0.0,-999.0,99,-99.99,,,0.00,0.000000,,2013-02-04 06:32:00,
2013-02-04 01:42:00,30.0,30.0,30.17,SE,145,0.0,-999.0,99,-99.99,,,0.00,0.000000,,2013-02-04 06:42:00,
2013-02-04 01:52:00,30.0,29.0,30.16,East,83,0.0,-999.0,99,-99.99,,,0.00,0.000000,,2013-02-04 06:52:00,
2013-02-04 02:00:00,29.0,29.0,30.16,WSW,242,2.0,-999.0,99,-99.99,,,0.00,0.000000,,2013-02-04 07:00:00,
2013-02-04 02:02:00,30.0,29.0,30.16,East,83,0.0,-999.0,99,-99.99,,,0.00,0.000000,,2013-02-04 07:02:00,
2013-02-04 02:11:00,30.0,30.0,30.16,East,88,0.0,-999.0,99,-99.99,,,0.00,0.000000,,2013-02-04 07:11:00,
2013-02-04 02:21:00,30.0,29.0,30.16,South,176,1.0,-999.0,99,-99.99,,,0.00,0.000000,,2013-02-04 07:21:00,
2013-02-04 02:32:00,29.0,29.0,30.16,WSW,242,2.0,-999.0,99,-99.99,,,0.00,0.000000,,2013-02-04 07:32:00,
2013-02-04 02:42:00,29.0,29.0,30.16,WSW,242,2.0,-999.0,99,-99.99,,,0.00,0.000000,,2013-02-04 07:42:00,
2013-02-04 02:52:00,29.0,29.0,30.16,WSW,242,2.0,-999.0,99,-99.99,,,0.00,0.000000,,2013-02-04 07:52:00,
2013-02-04 03:11:00,29.0,29.0,30.15,WSW,257,1.0,-999.0,99,-99.99,,,0.00,0.000000,,2013-02-04 08:11:00,
2013-02-04 03:21:00,29.0,29.0,30.14,South,172,0.0,-999.0,99,-99.99,,,0.00,0.000000,,2013-02-04 08:21:00,
2013-02-04 03:32:00,29.0,29.0,30.14,South,172,0.0,-999.0,99,-99.99,,,0.00,0.000000,,2013-02-04 08:32:00,
2013-02-04 03:42:00,28.0,28.0,30.14,WSW,249,0.0,-999.0,99,-99.99,,,0.00,0.000000,,2013-02-04 08:42:00,
2013-02-04 03:52:00,28.0,28.0,30.14,North,359,1.0,-999.0,99,-99.99,,,0.00,0.000000,,2013-02-04 08:52:00,
2013-02-04 04:02:00,28.0,28.0,30.14,North,359,1.0,-999.0,99,-99.99,,,0.00,0.000000,,2013-02-04 09:02:00,
2013-02-04 04:11:00,28.0,28.0,30.14,ENE,57,0.0,-999.0,99,-99.99,,,0.00,0.000000,,2013-02-04 09:11:00,
2013-02-04 04:21:00,28.0,28.0,30.13,East,79,1.0,-999.0,99,-99.99,,,0.00,0.000000,,2013-02-04 09:21:00,
2013-02-04 04:32:00,28.0,28.0,30.13,East,79,1.0,-999.0,99,-99.99,,,0.00,0.000000,,2013-02-04 09:32:00,
2013-02-04 04:42:00,28.0,28.0,30.13,SSW,205,1.0,-999.0,99,-99.99,,,0.00,0.000000,,2013-02-04 09:42:00,
2013-02-04 04:52:00,28.0,28.0,30.13,WSW,237,1.0,-999.0,99,-99.99,,,0.00,0.000000,,2013-02-04 09:52:00,
2013-02-04 05:02:00,28.0,28.0,30.13,WSW,237,1.0,-999.0,99,-99.99,,,0.00,0.000000,,2013-02-04 10:02:00,
2013-02-04 05:12:00,28.0,28.0,30.12,NE,35,1.0,-999.0,99,-99.99,,,0.00,0.000000,,2013-02-04 10:12:00,
2013-02-04 05:21:00,28.0,28.0,30.11,East,100,0.0,-999.0,99,-99.99,,,0.00,0.000000,,2013-02-04 10:21:00,
2013-02-04 05:32:00,28.0,28.0,30.11,East,100,0.0,-999.0,99,-99.99,,,0.00,0.000000,,2013-02-04 10:32:00,
2013-02-04 05:42:00,28.0,28.0,30.12,South,177,1.0,-999.0,99,-99.99,,,0.00,0.000000,,2013-02-04 10:42:00,
2013-02-04 05:52:00,28.0,28.0,30.13,WSW,255,2.0,-999.0,99,-99.99,,,0.00,0.000000,,2013-02-04 10:52:00,
2013-02-04 06:02:00,28.0,28.0,30.13,WSW,255,2.0,-999.0,99,-99.99,,,0.00,0.000000,,2013-02-04 11:02:00,
2013-02-04 06:11:00,28.0,28.0,30.13,WNW,297,2.0,-999.0,99,-99.99,,,0.00,0.000000,,2013-02-04 11:11:00,
2013-02-04 06:22:00,29.0,29.0,30.13,NW,317,3.0,-999.0,99,-99.99,,,0.00,0.000000,,2013-02-04 11:22:00,
2013-02-04 06:33:00,29.0,29.0,30.13,NW,317,3.0,-999.0,99,-99.99,,,0.00,0.000000,,2013-02-04 11:33:00,
2013-02-04 06:42:00,29.0,28.0,30.13,North,356,2.0,-999.0,99,-99.99,,,0.00,0.000000,,2013-02-04 11:42:00,
2013-02-04 06:52:00,28.0,28.0,30.13,South,179,0.0,-999.0,99,-99.99,,,0.00,0.000000,,2013-02-04 11:52:00,
2013-02-04 07:03:00,28.0,28.0,30.13,South,179,0.0,-999.0,99,-99.99,,,0.00,0.000000,,2013-02-04 12:03:00,
2013-02-04 07:12:00,28.0,28.0,30.14,South,188,1.0,-999.0,99,-99.99,,,0.00,0.000000,,2013-02-04 12:12:00,
2013-02-04 07:22:00,28.0,28.0,30.14,ESE,113,0.0,-999.0,99,-99.99,,,0.00,0.000000,,2013-02-04 12:22:00,
2013-02-04 07:32:00,28.0,28.0,30.14,ESE,113,0.0,-999.0,99,-99.99,,,0.00,0.000000,,2013-02-04 12:32:00,
2013-02-04 07:42:00,28.0,28.0,30.14,SSE,155,0.0,-999.0,99,-99.99,,,0.00,0.000000,,2013-02-04 12:42:00,
2013-02-04 07:53:00,27.0,27.0,30.14,SE,129,0.0,-999.0,99,-99.99,,,-99.99,0.000000,,2013-02-04 12:53:00,
2013-02-04 08:03:00,27.0,27.0,30.14,SE,129,0.0,-999.0,99,-99.99,,,-99.99,0.000000,,2013-02-04 13:03:00,
2013-02-04 08:12:00,27.0,27.0,30.15,ENE,67,1.0,-999.0,99,-99.99,,,0.00,0.000000,,2013-02-04 13:12:00,
2013-02-04 08:22:00,26.0,26.0,30.15,North,357,1.0,-999.0,99,-99.99,,,0.00,6.980000,,2013-02-04 13:22:00,
2013-02-04 08:33:00,26.0,26.0,30.15,ENE,73,1.0,-999.0,99,-99.99,,,-99.99,27.910000,,2013-02-04 13:33:00,
2013-02-04 08:42:00,26.0,26.0,30.15,ENE,73,1.0,-999.0,99,-99.99,,,-99.99,27.910000,,2013-02-04 13:42:00,
2013-02-04 08:52:00,27.0,26.0,30.15,East,82,1.0,-999.0,99,-99.99,,,0.00,55.820000,,2013-02-04 13:52:00,
2013-02-04 09:00:00,28.0,28.0,30.16,ESE,102,0.0,-999.0,99,-99.99,,,-99.99,83.739998,,2013-02-04 14:00:00,
2013-02-04 09:03:00,27.0,26.0,30.15,East,82,1.0,-999.0,99,-99.99,,,0.00,55.820000,,2013-02-04 14:03:00,
2013-02-04 09:12:00,27.0,27.0,30.14,NE,48,3.0,-999.0,99,-99.99,,,-99.99,48.849998,,2013-02-04 14:12:00,
2013-02-04 09:23:00,28.0,28.0,30.15,NNE,31,1.0,-999.0,99,-99.99,,,-99.99,62.799999,,2013-02-04 14:23:00,
2013-02-04 09:33:00,28.0,28.0,30.15,NNE,31,1.0,-999.0,99,-99.99,,,-99.99,62.799999,,2013-02-04 14:33:00,
2013-02-04 09:42:00,28.0,28.0,30.16,ESE,102,0.0,-999.0,99,-99.99,,,-99.99,83.739998,,2013-02-04 14:42:00,
2013-02-04 09:53:00,28.0,28.0,30.16,ESE,102,0.0,-999.0,99,-99.99,,,-99.99,83.739998,,2013-02-04 14:53:00,
2013-02-04 10:13:00,29.0,28.0,30.16,SE,145,2.0,-999.0,99,-99.99,,,0.00,111.650002,,2013-02-04 15:13:00,
2013-02-04 10:24:00,29.0,28.0,30.15,South,175,2.0,-999.0,99,-99.99,,,0.00,139.559998,,2013-02-04 15:24:00,
2013-02-04 10:30:00,30.0,30.0,30.15,SSW,198,2.0,-999.0,98,-99.99,,,0.00,314.010010,,2013-02-04 15:30:00,
2013-02-04 10:33:00,29.0,28.0,30.15,South,175,2.0,-999.0,99,-99.99,,,0.00,139.559998,,2013-02-04 15:33:00,
2013-02-04 10:43:00,29.0,29.0,30.16,SSW,194,2.0,-999.0,99,-99.99,,,0.00,160.490005,,2013-02-04 15:43:00,
2013-02-04 10:53:00,29.0,29.0,30.15,West,271,1.0,-999.0,99,-99.99,,,0.00,202.360001,,2013-02-04 15:53:00,
2013-02-04 11:03:00,29.0,29.0,30.15,West,271,1.0,-999.0,99,-99.99,,,0.00,202.360001,,2013-02-04 16:03:00,
2013-02-04 11:11:00,30.0,30.0,30.15,SSW,198,2.0,-999.0,98,-99.99,,,0.00,314.010010,,2013-02-04 16:11:00,
2013-02-04 11:23:00,30.0,30.0,30.15,SSW,198,2.0,-999.0,98,-99.99,,,0.00,314.010010,,2013-02-04 16:23:00,
2013-02-04 12:42:00,36.0,27.0,30.12,SSW,199,2.0,-999.0,71,-99.99,,,0.00,383.790009,,2013-02-04 17:42:00,
2013-02-04 12:52:00,36.0,27.0,30.11,WSW,240,3.0,-999.0,69,-99.99,,,0.00,460.549988,,2013-02-04 17:52:00,
2013-02-04 13:03:00,36.0,27.0,30.11,WSW,240,3.0,-999.0,69,-99.99,,,0.00,460.549988,,2013-02-04 18:03:00,
2013-02-04 13:12:00,37.0,27.0,30.09,South,179,2.0,-999.0,66,-99.99,,,0.00,488.459991,,2013-02-04 18:12:00,
2013-02-04 13:22:00,38.0,26.0,30.08,SSW,205,4.0,-999.0,62,-99.99,,,0.00,544.280029,,2013-02-04 18:22:00,
2013-02-04 13:32:00,38.0,26.0,30.08,SSW,205,4.0,-999.0,62,-99.99,,,0.00,544.280029,,2013-02-04 18:32:00,
2013-02-04 13:42:00,38.0,26.0,30.07,ESE,103,3.0,-999.0,62,-99.99,,,0.00,530.330017,,2013-02-04 18:42:00,
2013-02-04 13:52:00,39.0,27.0,30.06,East,86,1.0,-999.0,61,-99.99,,,0.00,488.459991,,2013-02-04 18:52:00,
2013-02-04 14:02:00,39.0,27.0,30.06,East,86,1.0,-999.0,61,-99.99,,,0.00,488.459991,,2013-02-04 19:02:00,
2013-02-04 14:12:00,40.0,27.0,30.05,ENE,74,2.0,-999.0,60,-99.99,,,0.00,614.059998,,2013-02-04 19:12:00,
2013-02-04 14:22:00,41.0,27.0,30.03,SSW,199,3.0,-999.0,56,-99.99,,,0.00,641.979980,,2013-02-04 19:22:00,
2013-02-04 14:32:00,41.0,27.0,30.03,SSW,199,3.0,-999.0,56,-99.99,,,0.00,641.979980,,2013-02-04 19:32:00,
2013-02-04 14:42:00,42.0,27.0,30.02,SSW,196,4.0,-999.0,54,-99.99,,,0.00,432.640015,,2013-02-04 19:42:00,
2013-02-04 14:52:00,43.0,27.0,30.02,SW,234,4.0,-999.0,54,-99.99,,,0.00,453.570007,,2013-02-04 19:52:00,
2013-02-04 15:02:00,43.0,27.0,30.02,SW,234,4.0,-999.0,54,-99.99,,,0.00,453.570007,,2013-02-04 20:02:00,
2013-02-04 15:12:00,43.0,27.0,30.02,SSW,207,5.0,-999.0,52,-99.99,,,0.00,320.989990,,2013-02-04 20:12:00,
2013-02-04 15:22:00,44.0,27.0,30.02,SW,231,6.0,-999.0,49,-99.99,,,0.00,390.769989,,2013-02-04 20:22:00,
2013-02-04 15:32:00,44.0,27.0,30.02,SW,231,6.0,-999.0,49,-99.99,,,0.00,390.769989,,2013-02-04 20:32:00,
2013-02-04 15:42:00,44.0,27.0,30.02,SW,231,6.0,-999.0,49,-99.99,,,0.00,390.769989,,2013-02-04 20:42:00,
2013-02-04 15:52:00,45.0,25.0,30.01,SW,220,5.0,-999.0,45,-99.99,,,0.00,341.920013,,2013-02-04 20:52:00,
2013-02-04 16:03:00,45.0,25.0,30.01,SW,220,5.0,-999.0,45,-99.99,,,0.00,341.920013,,2013-02-04 21:03:00,
2013-02-04 16:12:00,45.0,25.0,30.00,SW,228,5.0,-999.0,45,-99.99,,,0.00,286.100006,,2013-02-04 21:12:00,
2013-02-04 16:23:00,45.0,26.0,30.00,WSW,256,4.0,-999.0,46,-99.99,,,0.00,230.270004,,2013-02-04 21:23:00,
2013-02-04 16:32:00,45.0,26.0,30.00,WSW,256,4.0,-999.0,46,-99.99,,,0.00,230.270004,,2013-02-04 21:32:00,
2013-02-04 16:43:00,46.0,26.0,30.00,WSW,241,6.0,-999.0,46,-99.99,,,0.00,195.380005,,2013-02-04 21:43:00,
2013-02-04 16:52:00,46.0,25.0,29.99,WSW,247,6.0,-999.0,44,-99.99,,,0.00,181.429993,,2013-02-04 21:52:00,
2013-02-04 17:00:00,46.0,26.0,29.98,West,259,4.0,-999.0,45,-99.99,,,0.00,132.580002,,2013-02-04 22:00:00,
2013-02-04 17:03:00,46.0,25.0,29.99,WSW,247,6.0,-999.0,44,-99.99,,,0.00,181.429993,,2013-02-04 22:03:00,
2013-02-04 17:12:00,46.0,26.0,29.99,WSW,248,5.0,-999.0,45,-99.99,,,0.00,181.429993,,2013-02-04 22:12:00,
2013-02-04 17:22:00,46.0,26.0,29.98,WSW,246,5.0,-999.0,44,-99.99,,,0.00,153.520004,,2013-02-04 22:22:00,
2013-02-04 17:32:00,46.0,26.0,29.98,WSW,246,5.0,-999.0,44,-99.99,,,0.00,153.520004,,2013-02-04 22:32:00,
2013-02-04 17:42:00,46.0,26.0,29.98,West,259,4.0,-999.0,45,-99.99,,,0.00,132.580002,,2013-02-04 22:42:00,
2013-02-04 17:52:00,46.0,26.0,29.98,West,259,4.0,-999.0,45,-99.99,,,0.00,132.580002,,2013-02-04 22:52:00,
2013-02-04 18:11:00,46.0,26.0,29.98,WSW,239,5.0,-999.0,45,-99.99,,,0.00,55.820000,,2013-02-04 23:11:00,
2013-02-04 18:22:00,46.0,27.0,29.97,SW,218,3.0,-999.0,46,-99.99,,,0.00,48.849998,,2013-02-04 23:22:00,
2013-02-04 18:32:00,46.0,27.0,29.97,SW,218,3.0,-999.0,46,-99.99,,,0.00,48.849998,,2013-02-04 23:32:00,
2013-02-04 18:42:00,46.0,26.0,29.97,SW,234,5.0,-999.0,46,-99.99,,,0.00,13.960000,,2013-02-04 23:42:00,
2013-02-04 18:53:00,45.0,26.0,29.97,SW,236,5.0,-999.0,47,-99.99,,,0.00,0.000000,,2013-02-04 23:53:00,
2013-02-04 19:02:00,45.0,26.0,29.97,SW,236,5.0,-999.0,47,-99.99,,,0.00,0.000000,,2013-02-05 00:02:00,
2013-02-04 19:12:00,45.0,27.0,29.97,WSW,243,5.0,-999.0,49,-99.99,,,0.00,0.000000,,2013-02-05 00:12:00,
2013-02-04 19:22:00,44.0,28.0,29.98,WSW,242,4.0,-999.0,52,-99.99,,,0.00,0.000000,,2013-02-05 00:22:00,
2013-02-04 19:32:00,44.0,28.0,29.98,WSW,242,4.0,-999.0,52,-99.99,,,0.00,0.000000,,2013-02-05 00:32:00,
2013-02-04 19:42:00,44.0,28.0,29.98,West,259,2.0,-999.0,53,-99.99,,,0.00,0.000000,,2013-02-05 00:42:00,
2013-02-04 19:52:00,44.0,29.0,29.98,WSW,244,2.0,-999.0,54,-99.99,,,0.00,0.000000,,2013-02-05 00:52:00,
2013-02-04 20:02:00,44.0,29.0,29.98,WSW,244,2.0,-999.0,54,-99.99,,,0.00,0.000000,,2013-02-05 01:02:00,
2013-02-04 20:12:00,44.0,29.0,29.98,West,262,2.0,-999.0,56,-99.99,,,0.00,0.000000,,2013-02-05 01:12:00,
2013-02-04 20:22:00,44.0,30.0,29.98,WNW,290,2.0,-999.0,57,-99.99,,,0.00,0.000000,,2013-02-05 01:22:00,
2013-02-04 20:32:00,44.0,30.0,29.98,WNW,290,2.0,-999.0,57,-99.99,,,0.00,0.000000,,2013-02-05 01:32:00,
2013-02-04 20:42:00,43.0,29.0,29.98,WSW,249,2.0,-999.0,57,-99.99,,,0.00,0.000000,,2013-02-05 01:42:00,
2013-02-04 20:52:00,43.0,30.0,29.98,SW,234,2.0,-999.0,59,-99.99,,,0.00,0.000000,,2013-02-05 01:52:00,
2013-02-04 21:02:00,43.0,30.0,29.98,SW,234,2.0,-999.0,59,-99.99,,,0.00,0.000000,,2013-02-05 02:02:00,
2013-02-04 21:11:00,43.0,30.0,29.98,WSW,252,2.0,-999.0,61,-99.99,,,0.00,0.000000,,2013-02-05 02:11:00,
2013-02-04 21:22:00,43.0,31.0,29.99,West,268,3.0,-999.0,62,-99.99,,,0.00,0.000000,,2013-02-05 02:22:00,
2013-02-04 21:32:00,43.0,31.0,29.99,West,268,3.0,-999.0,62,-99.99,,,0.00,0.000000,,2013-02-05 02:32:00,
2013-02-04 21:42:00,42.0,31.0,29.99,WNW,292,2.0,-999.0,63,-99.99,,,0.00,0.000000,,2013-02-05 02:42:00,
2013-02-04 21:52:00,42.0,31.0,29.99,SW,224,1.0,-999.0,64,-99.99,,,0.00,0.000000,,2013-02-05 02:52:00,
2013-02-04 22:02:00,42.0,31.0,29.99,SW,224,1.0,-999.0,64,-99.99,,,0.00,0.000000,,2013-02-05 03:02:00,
2013-02-04 22:11:00,42.0,31.0,29.99,SSW,199,1.0,-999.0,64,-99.99,,,0.00,0.000000,,2013-02-05 03:11:00,
2013-02-04 22:22:00,42.0,32.0,29.99,West,279,2.0,-999.0,65,-99.99,,,0.00,0.000000,,2013-02-05 03:22:00,
2013-02-04 22:32:00,42.0,32.0,29.99,West,279,2.0,-999.0,65,-99.99,,,0.00,0.000000,,2013-02-05 03:32:00,
2013-02-04 22:42:00,42.0,31.0,29.99,SW,233,2.0,-999.0,64,-99.99,,,0.00,0.000000,,2013-02-05 03:42:00,
2013-02-04 22:52:00,42.0,31.0,30.00,WSW,239,2.0,-999.0,65,-99.99,,,0.00,0.000000,,2013-02-05 03:52:00,
2013-02-04 23:01:00,42.0,31.0,30.00,WSW,239,2.0,-999.0,65,-99.99,,,0.00,0.000000,,2013-02-05 04:01:00,
2013-02-04 23:11:00,42.0,31.0,29.99,SW,231,3.0,-999.0,63,-99.99,,,0.00,0.000000,,2013-02-05 04:11:00,
2013-02-04 23:22:00,42.0,32.0,29.98,SW,225,2.0,-999.0,65,-99.99,,,0.00,0.000000,,2013-02-05 04:22:00,
2013-02-04 23:32:00,42.0,32.0,29.98,SW,225,2.0,-999.0,65,-99.99,,,0.00,0.000000,,2013-02-05 04:32:00,
2013-02-04 23:42:00,43.0,31.0,29.99,WSW,252,5.0,-999.0,63,-99.99,,,0.00,0.000000,,2013-02-05 04:42:00,
2013-02-04 23:52:00,42.0,31.0,29.98,WSW,243,4.0,-999.0,63,-99.99,,,0.00,0.000000,,2013-02-05 04:52:00,